STARLINK-5686, 55450

Orbit data source: Space-Track

STARLINK-5686, 55450 is a payload satellite owned by SpaceX/Seattle (US) in LEO that was launched on Thu, 02 Feb 2023 UTC via an FALCON 9 launch vehicle from the Air Force Eastern Test Range (AFETR). Payload-class satellites include a variety of spacecraft equipped with specific instruments for various scientific and technological missions. These include communications satellites like Starlink; space stations such as the ISS; scientific satellites like the Hubble; Earth observation satellites from companies like Planet Labs, Umbra, and HawkEye 360; GPS; miniature CubeSats for education and research; and military/defense satellites.

Loading next visibility...
Identifier
55450, 2023-015B
Orbit
LEO
Country
Flag of USUS
Related business
Manufacturer
SpaceX/Seattle
Mission
Operational Commercial Communications
Bus & Motor
STARLINK, Unknown motor
Mass
305 kg wet, ~290 kg dry
Launch date (UTC)
2023-02-02 (3 years ago)
Launch vehicle
FALCON 9
Launch site
Air Force Eastern Test Range (AFETR)
Object type
Payload
Rocket body
Debris
Shape & HBR
Box + 1 Pan, 10.1 m
Radar Cross Section
13.562 m², Large (>1 m²)

Expand to show TLE details & history
Last TLE update: 13 hours ago

TLE from 13 hours ago
0 STARLINK-5686
1 55450U 23015B   26132.59953383 -.00000063  00000-0  73490-5 0  9997
2 55450  43.0039 328.0240 0001571 267.9825  92.0847 15.26743071181435
Epoch: 2026-05-12T14:23Z
TLE epoch observation values (Epoch: 2026-05-12T14:23:19.722Z)
Latitude
-0°
Longitude
-118.17977°
Altitude
485.372 km
Speed
7.624 km/s
True Right ascension
21h 52m 05s
True Declination
0° 00' 00"
Sunlit
Object was in daylight at epoch
Visualization orbit readout
Latitude
Unknown
Longitude
Unknown
Altitude
Unknown
Speed
Unknown
Apparent Right ascension
Unknown
Apparent Declination
Unknown
Sunlit
N/A
Visualization observer readout
Local Sidereal Time
11:18:42
Azimuth
Unknown
Elevation
Unknown
Doppler factor
Unknown
Orbital elements
Apogee altitude
488.579 km
Perigee altitude
486.422 km
Semi-major axis
6,865.637 km
Eccentricity
0.00016
Inclination
43.0039°
RAAN
328.024°
Arg. of periapsis
267.9825°
True anomaly
92.10269°
Mean anomaly
92.0847°
Eccentric anomaly
92.0937°
Mean motion
3.81524 °/min
Orbital period
94.36 mins
BSTAR
0.000007349
Loading maneuver chart data...
Computing Atmospheric mass density...
Loading historical data...
Loading historical data...
Loading historical data...
Loading historical data...
Loading historical data...
Loading historical data...
Loading historical data...

Documentation

Showing up to 5 results
|